GFSNGP_sfc_temp_057.txt.gz
Temp
38 41 40 40 42 42 38 37 34 37 37 41 41 41 41 43 46 46 47 48 45 45 43 42 41 41 41 41 41 41 40 39 40 40 40 40 40 42 42 43 43 44 46 46
35 40 39 38 41 41 40 39 38 38 37 40 41 40 43 43 44 44 45 47 47 47 45 43 41 40 40 40 40 39 38 38 39 41 41 41 41 41 42 44 46 45 45 45
30 35 36 34 38 40 40 40 39 35 38 40 41 44 43 44 44 45 45 46 46 45 43 42 41 41 39 39 38 37 37 37 39 40 39 40 41 41 44 44 44 44 44 43
24 30 25 38 42 43 42 41 40 41 41 42 42 44 44 44 44 45 45 45 45 43 42 41 41 40 39 39 37 36 36 36 38 38 39 40 40 41 43 44 42 42 42 43
23 20 32 37 41 40 39 39 43 40 41 42 44 40 41 46 45 45 44 44 43 41 41 40 40 39 38 37 36 35 36 36 38 39 39 39 39 41 43 42 42 42 42 42
24 19 20 37 42 46 43 29 42 42 40 40 40 32 36 45 46 46 45 44 42 41 41 39 39 37 36 35 34 34 36 38 39 39 38 38 40 41 43 43 41 41 40 41
22 19 29 39 43 44 30 31 41 42 40 40 36 39 42 44 45 45 43 43 42 39 38 38 37 36 35 34 33 36 38 38 38 39 38 40 42 43 42 40 39 39 39 41
22 20 24 43 42 38 39 40 41 40 40 40 41 42 42 43 42 42 42 41 40 39 38 37 37 35 33 32 36 36 37 37 37 37 41 43 42 41 39 39 38 38 39 41
31 31 41 41 41 42 43 42 39 39 41 41 40 40 41 40 40 41 41 40 40 37 36 36 36 34 32 34 35 36 35 35 36 42 43 43 40 38 38 38 38 39 41 40
34 37 40 41 42 43 43 41 43 41 42 41 39 40 39 39 39 39 39 39 39 37 35 34 35 35 34 34 35 35 33 34 39 41 42 41 40 39 38 38 38 40 40 40
34 36 39 39 41 42 42 42 41 42 41 41 40 39 39 39 39 39 38 38 37 35 34 34 35 34 34 35 35 33 33 34 39 40 40 39 39 38 39 40 42 40 40 41
33 40 38 37 41 43 42 40 40 40 41 41 39 39 39 38 38 38 37 37 36 35 34 34 34 33 34 35 34 33 33 38 38 38 38 38 38 38 41 43 45 45 45 44
40 39 41 41 43 43 40 40 41 40 39 39 41 39 39 38 39 40 38 37 35 35 35 34 33 33 34 35 34 34 35 38 38 38 38 37 37 36 36 40 42 43 44 45
40 42 37 40 39 42 41 43 43 42 41 41 40 40 39 38 38 37 36 37 36 35 35 34 33 33 34 34 34 34 38 40 37 37 37 37 37 37 37 37 36 37 42 43
40 39 40 40 40 40 42 41 40 40 40 40 40 39 38 37 36 37 37 37 36 35 36 34 33 33 34 35 35 36 36 36 38 38 37 38 37 37 37 37 36 37 38 40
39 38 38 38 40 41 39 40 38 39 39 39 38 38 38 38 37 36 36 36 34 34 35 34 32 34 35 35 34 37 36 39 40 37 36 36 37 37 36 36 36 36 37 37
37 35 37 38 40 39 40 40 39 39 39 38 38 38 37 37 36 35 35 37 37 35 35 33 33 35 35 35 34 37 34 36 39 36 36 36 36 36 36 36 36 36 36 39
41 42 42 42 41 40 40 40 39 39 38 39 39 38 36 34 33 34 35 35 36 37 35 34 34 35 34 34 35 35 36 36 36 35 36 36 36 36 36 36 36 36 37 38
41 42 42 41 41 39 38 38 39 39 39 39 38 37 36 35 35 35 35 34 34 33 33 34 39 36 32 35 40 34 36 36 35 35 36 37 36 36 36 36 36 37 37 36
42 42 43 42 42 40 39 40 39 38 39 38 37 36 35 35 35 34 34 33 35 34 35 34 34 31 32 34 40 34 36 35 35 34 35 35 35 35 35 37 37 37 37 36
41 41 41 41 40 41 40 39 38 38 39 38 36 35 34 35 34 34 32 31 36 36 35 38 33 31 34 38 35 37 36 35 35 34 34 34 34 35 35 36 36 37 36 36
39 40 40 39 38 38 39 39 38 38 37 37 36 36 34 34 33 33 34 32 35 41 35 32 31 35 39 39 33 35 35 35 35 35 35 34 34 34 34 35 35 36 36 36
38 38 38 38 37 37 37 37 37 37 36 36 35 35 33 33 32 30 29 35 35 37 32 32 37 43 42 32 33 34 36 35 35 35 34 34 34 34 34 35 35 37 36 36
37 37 37 38 37 36 35 37 36 36 36 36 36 35 34 31 30 32 33 39 40 39 33 33 37 42 39 31 32 32 35 35 35 35 35 36 34 34 34 35 35 37 36 36
36 36 36 35 34 33 34 34 34 34 34 34 35 35 35 33 32 32 32 34 40 37 33 38 41 40 32 31 31 32 32 34 35 35 35 35 34 34 34 34 35 36 36 36
35 36 35 35 32 32 30 33 28 32 33 32 34 34 34 36 36 37 36 35 33 36 32 32 32 32 31 31 32 32 32 33 34 35 35 35 35 35 34 34 35 36 36 36
35 39 34 34 34 34 34 36 37 35 34 33 33 35 35 38 37 37 37 32 32 32 31 31 31 33 32 32 31 32 32 32 35 34 34 34 35 35 34 34 34 35 36 35

GFSNGP_sfc_temp_063.txt.gz
Temp
42 43 43 43 44 41 41 42 42 44 41 46 47 47 49 50 50 52 53 52 52 52 53 54 52 50 49 49 49 48 47 47 47 47 47 46 46 46 46 46 46 46 46 47
40 41 41 40 42 42 41 42 41 41 42 47 48 49 49 50 49 49 49 50 51 51 51 51 51 49 48 48 47 46 46 45 45 45 45 44 45 45 45 45 46 46 45 47
37 37 39 38 41 40 42 43 43 41 45 46 46 47 48 48 47 47 48 49 49 49 49 48 48 47 47 47 46 45 45 45 44 44 43 43 44 43 43 43 44 44 45 45
34 37 31 43 45 45 43 44 44 43 43 45 47 48 48 48 48 49 48 48 48 49 48 47 47 46 46 45 45 43 43 43 43 43 42 43 42 42 43 44 44 44 44 44
32 31 37 40 41 42 42 43 44 43 44 46 46 46 47 49 49 47 47 48 47 48 46 46 45 44 44 44 43 42 42 42 42 43 41 41 41 42 43 42 44 43 43 42
29 26 26 41 44 48 47 38 44 45 44 45 44 41 44 49 47 47 48 47 46 46 46 45 45 43 42 42 41 41 42 41 42 42 41 40 41 41 42 43 42 42 41 42
30 28 34 42 45 47 38 41 44 45 45 44 43 45 47 46 46 47 46 45 46 45 44 44 43 42 41 40 40 42 41 41 41 41 40 41 42 43 43 41 41 40 40 41
28 27 29 43 44 41 44 44 45 45 45 44 45 44 44 44 44 44 43 43 45 44 44 44 43 41 40 39 42 41 40 40 40 40 41 42 41 42 42 40 38 39 39 40
35 36 43 43 44 45 44 44 44 44 45 44 43 43 42 42 42 43 43 43 44 43 42 43 42 41 39 41 40 40 39 39 39 40 43 43 41 40 37 38 38 38 38 39
37 39 40 43 45 45 46 45 45 45 45 44 43 42 42 42 42 42 42 43 43 42 41 41 42 41 40 40 40 39 38 38 39 41 42 41 41 39 37 37 37 37 39 38
36 39 41 42 43 44 44 44 44 45 45 44 43 42 42 41 41 42 42 42 42 41 40 40 40 40 41 40 39 38 38 38 40 41 41 40 40 39 38 39 40 39 39 40
38 42 42 42 43 44 42 43 44 44 44 44 43 42 42 41 42 41 41 42 41 41 40 40 40 40 40 40 39 37 37 38 40 40 39 38 37 37 41 42 43 43 44 43
43 42 42 42 43 44 43 43 44 44 44 44 44 42 42 41 42 43 42 41 40 40 40 39 39 38 40 39 38 37 36 37 39 37 37 37 36 36 35 38 41 42 43 45
42 42 40 41 42 43 44 45 47 45 44 43 42 42 41 41 41 41 40 41 40 39 39 39 38 38 39 38 38 37 37 38 37 37 37 36 36 36 36 36 35 36 41 43
40 41 42 43 42 42 43 43 42 42 42 42 43 41 41 40 40 41 41 40 39 39 38 39 38 38 39 38 37 37 37 37 38 38 37 37 36 36 37 36 36 37 37 40
40 40 40 41 41 42 42 42 41 41 41 41 41 41 41 40 39 39 40 39 37 39 39 38 37 39 38 38 37 37 38 39 39 38 36 35 36 36 36 36 36 36 36 37
38 36 37 38 40 41 41 42 41 40 40 40 41 41 40 39 38 39 40 40 38 38 38 38 37 38 38 38 37 37 38 37 39 36 36 35 36 36 36 35 35 36 37 39
40 41 42 42 41 40 41 41 41 40 39 41 40 39 38 37 37 38 39 38 38 37 38 39 38 38 38 37 37 38 36 36 36 35 35 35 35 36 35 35 35 35 37 38
40 42 41 42 41 40 40 40 40 40 40 40 39 39 38 38 38 38 38 37 36 36 38 39 39 40 37 37 41 37 37 36 36 36 35 36 35 35 35 35 35 36 35 36
40 40 41 41 41 40 40 40 40 38 40 39 38 37 37 38 38 37 37 36 37 38 39 38 38 37 37 37 40 36 37 36 36 35 35 34 34 34 34 35 35 36 35 36
41 41 41 41 41 41 40 39 38 38 39 38 36 35 35 37 37 37 36 36 39 39 38 39 38 37 37 39 36 36 36 35 36 34 35 34 33 33 34 34 35 35 35 35
39 39 40 39 39 38 40 39 38 37 37 36 37 36 36 36 37 37 37 36 38 41 38 37 37 38 41 38 35 36 37 37 36 35 34 34 34 33 33 34 34 34 35 35
38 38 38 38 37 38 37 37 37 36 35 35 34 35 35 36 36 34 36 38 37 37 38 37 38 43 41 35 34 34 35 35 35 35 35 34 34 34 33 33 33 35 35 35
37 37 37 37 36 35 35 37 36 36 35 36 36 36 35 35 36 36 36 38 41 40 38 37 38 42 38 35 34 34 34 35 35 35 35 35 34 34 34 34 35 36 36 36
35 35 35 35 34 34 34 35 34 35 35 36 36 37 36 36 35 37 37 37 40 41 37 39 41 39 35 34 34 34 34 34 35 35 34 34 34 34 35 34 34 35 35 35
34 35 35 35 33 34 33 33 33 33 34 35 37 39 39 39 37 38 37 38 37 38 36 36 36 35 34 34 34 34 34 34 35 34 34 34 34 34 34 35 34 35 35 35
34 38 34 34 34 34 34 34 34 34 35 35 36 40 40 40 39 38 38 37 37 35 35 35 35 35 35 34 33 33 34 34 35 35 34 34 35 35 35 35 36 36 35 36

GFSNGP_sfc_temp_069.txt.gz
Temp
58 58 57 58 58 58 56 59 54 59 56 63 64 64 66 66 65 64 63 63 63 62 63 64 65 65 65 64 63 62 60 60 59 60 59 58 57 56 57 56 56 56 55 55
55 56 55 53 57 58 58 58 58 58 56 67 68 67 64 63 63 62 63 62 61 61 62 62 62 62 62 62 61 61 60 59 58 57 56 55 55 55 54 54 54 54 54 52
52 54 54 51 57 58 58 59 58 53 58 62 59 60 62 63 61 61 60 59 59 60 60 60 60 60 59 60 61 59 58 57 57 56 55 54 54 53 52 52 53 52 51 48
50 52 42 53 59 60 58 59 60 59 58 59 60 62 64 63 61 60 58 58 59 60 59 60 60 59 59 59 58 57 56 56 56 55 53 53 52 51 51 51 50 48 47 47
46 48 56 54 54 55 54 56 62 60 59 59 60 60 60 62 60 58 58 59 59 60 59 59 58 58 57 56 56 55 55 55 54 53 51 51 49 49 50 49 46 45 46 45
49 39 38 54 57 60 59 50 60 61 59 59 58 52 53 59 59 58 59 59 58 58 59 59 59 58 55 54 54 54 54 53 53 52 51 50 49 49 50 47 45 45 45 45
48 43 52 59 59 60 47 51 60 62 61 59 55 56 57 58 58 58 58 58 58 58 57 58 58 57 53 53 53 55 54 53 52 52 51 51 50 50 48 45 45 43 43 44
50 43 40 60 56 52 57 59 60 60 60 57 57 55 55 55 56 56 55 56 57 56 56 58 58 56 53 52 55 54 52 51 51 52 51 51 50 48 46 44 42 41 40 40
53 53 59 61 59 59 60 59 59 59 58 58 55 54 54 54 55 56 56 56 57 56 55 56 58 57 53 53 54 52 51 50 51 51 51 51 47 44 43 42 40 39 38 38
52 61 59 60 63 60 59 59 60 60 57 57 55 55 54 55 55 55 56 55 56 55 54 54 56 56 54 54 53 51 49 50 49 49 49 49 45 44 42 39 38 37 38 38
56 61 58 59 61 63 59 59 58 58 57 56 55 54 55 55 55 56 56 56 56 54 54 54 55 55 55 54 52 49 49 49 48 49 47 43 42 42 39 40 40 39 39 39
55 63 63 61 62 62 57 55 57 56 55 56 56 54 55 55 56 56 55 56 55 54 54 54 54 54 53 53 51 48 47 47 47 46 42 40 40 41 44 42 43 43 45 44
62 62 60 59 61 61 58 57 57 57 57 55 56 56 56 55 56 55 55 55 54 53 53 53 52 52 53 52 49 47 46 46 46 44 41 40 39 37 35 38 41 42 44 46
61 59 56 57 56 59 58 58 57 58 58 57 57 57 56 55 55 54 54 55 54 53 52 53 51 50 52 51 48 47 47 45 44 41 40 39 38 37 36 35 35 36 43 43
58 60 59 61 59 57 58 57 55 54 56 56 57 56 55 54 53 53 54 54 53 52 53 53 51 50 51 49 47 46 45 45 44 41 40 40 39 38 36 36 35 36 38 41
58 57 58 56 56 56 56 55 54 55 56 56 55 55 55 55 54 54 54 54 50 49 51 50 50 50 49 47 46 45 45 42 42 40 39 39 39 36 35 35 35 35 36 37
52 50 53 55 55 55 55 57 56 56 55 54 54 55 54 54 53 52 52 53 52 51 52 51 49 50 48 47 46 45 42 42 42 38 38 38 38 35 35 34 34 35 37 38
59 59 58 58 56 56 55 56 55 55 53 54 54 53 52 51 49 50 51 52 52 52 53 52 50 48 48 47 45 44 43 43 40 37 38 37 37 37 35 34 35 35 35 37
57 57 57 57 58 57 56 55 54 54 54 53 51 50 50 50 51 50 51 50 50 49 50 50 43 44 47 45 43 44 43 41 38 37 38 37 35 36 36 36 36 36 37 37
54 56 56 55 55 55 54 54 54 53 53 52 50 49 47 47 49 49 49 48 50 50 48 48 47 46 46 46 43 43 42 40 37 38 36 35 35 34 36 37 37 37 37 37
53 54 53 54 54 54 54 53 52 51 51 50 46 44 45 48 49 49 46 44 49 48 45 44 45 45 46 43 43 42 41 39 38 37 36 34 34 34 35 36 37 37 36 36
54 53 53 54 54 53 53 53 52 50 49 47 46 46 45 45 45 45 46 44 48 43 45 44 45 43 43 42 42 41 40 40 38 38 36 35 34 33 33 35 35 36 36 36
54 53 53 52 52 51 52 52 51 48 46 45 44 44 44 44 44 40 39 45 44 43 44 45 42 43 41 43 41 40 40 39 38 37 36 35 35 35 36 36 35 36 34 34
53 53 52 51 51 50 48 49 48 47 46 46 46 46 45 43 44 46 43 43 44 43 45 42 42 41 41 42 41 40 39 38 38 37 36 36 35 36 36 36 36 36 35 35
53 52 50 49 48 48 46 47 46 46 46 46 46 47 47 47 42 42 42 41 42 42 41 41 41 41 43 41 40 39 39 39 38 37 36 35 35 35 36 36 36 36 36 35
52 51 49 48 47 47 47 47 45 46 45 44 45 47 48 48 46 42 41 41 42 40 40 41 41 42 42 41 40 39 39 38 38 37 36 35 35 36 36 36 37 37 37 36
50 47 49 47 47 47 47 46 45 44 45 44 43 47 47 45 43 39 38 39 37 39 41 42 41 40 40 40 40 39 39 38 38 37 37 35 35 36 36 37 37 38 38 37

GFSNGP_sfc_temp_075.txt.gz
Temp
47 50 50 49 50 49 46 45 39 43 45 48 50 51 52 52 52 52 53 52 50 49 48 48 48 47 48 48 49 48 48 46 45 46 45 45 44 44 44 43 44 43 44 45
44 50 49 47 50 49 48 48 46 46 44 49 50 51 50 51 52 51 50 51 51 51 50 49 47 46 47 47 47 46 45 45 46 46 45 43 43 43 42 41 41 42 41 40
36 47 46 40 46 48 49 50 50 42 46 49 49 51 49 50 52 49 48 49 49 49 48 47 47 48 46 45 45 45 45 45 45 45 43 43 43 42 41 39 39 38 37 38
31 40 30 45 49 50 50 52 49 49 50 51 51 49 48 49 47 47 48 48 47 46 46 47 47 47 46 46 44 44 43 44 43 43 42 42 41 40 39 38 38 37 37 39
32 31 41 44 48 46 45 44 52 49 49 51 51 47 44 48 48 47 47 47 46 46 47 45 46 46 46 44 44 43 43 42 43 42 41 41 39 38 38 36 35 36 39 42
34 28 28 43 48 52 49 35 49 51 49 48 47 36 38 47 49 48 48 48 47 47 46 45 46 45 44 43 42 42 43 43 43 42 41 40 39 38 36 36 37 40 40 43
31 26 36 47 49 50 35 37 49 51 49 46 43 42 45 48 48 48 47 48 47 44 43 44 45 45 43 42 41 44 44 44 43 42 40 40 38 36 35 35 36 36 39 40
32 27 30 49 47 43 45 46 50 48 46 45 44 46 47 47 47 47 47 46 46 44 44 45 45 43 42 40 44 44 43 42 41 40 42 44 35 34 34 34 34 35 39 39
37 37 47 48 47 48 49 48 47 47 46 46 45 46 47 45 46 47 46 46 47 45 44 44 44 43 41 43 44 43 41 39 39 39 40 38 34 33 34 34 35 37 37 37
41 45 47 50 48 50 50 49 49 48 48 47 45 46 46 45 45 45 46 46 46 44 43 43 43 44 43 43 44 42 39 38 38 38 39 35 36 36 35 35 37 36 37 36
40 45 45 49 49 49 50 49 49 49 49 47 46 46 45 45 45 45 45 45 45 43 42 42 43 43 43 44 42 40 38 37 37 38 35 33 35 35 37 39 39 37 37 37
39 47 46 45 49 50 48 47 47 47 46 47 46 46 46 45 45 45 44 45 44 43 42 42 42 43 43 44 42 39 37 37 36 36 33 33 34 36 42 43 44 43 43 42
48 47 48 48 50 50 48 47 48 47 47 46 47 47 46 45 46 48 45 44 43 43 42 42 42 41 43 43 41 39 36 37 35 35 33 33 34 35 34 38 42 42 42 43
48 48 44 45 46 49 49 49 51 48 48 47 47 47 47 46 45 44 43 44 44 44 43 42 42 41 42 42 40 38 37 42 33 33 32 33 34 35 35 34 33 34 40 41
47 47 47 47 47 47 47 47 45 45 46 46 47 46 46 44 43 43 44 44 44 43 43 43 42 41 42 41 40 38 37 35 35 34 36 37 35 35 35 34 33 34 35 38
46 46 46 45 44 45 45 45 43 44 45 45 45 45 45 44 43 42 43 43 41 39 41 42 43 41 42 40 38 37 36 41 40 36 34 34 35 34 34 33 33 33 34 34
43 41 42 41 43 43 43 45 45 45 44 44 43 44 43 42 41 41 41 42 42 41 42 44 42 42 41 39 37 35 34 34 39 33 33 34 34 34 33 33 33 33 33 36
46 46 46 46 44 44 44 45 45 44 43 43 44 43 41 39 38 38 40 40 41 40 42 43 42 40 39 38 38 35 33 33 33 35 34 34 35 34 34 33 34 33 33 35
48 47 46 47 46 45 44 44 43 43 43 43 42 39 39 39 39 39 39 39 38 38 39 43 44 40 37 43 42 35 33 33 35 36 34 36 33 33 33 33 33 33 33 33
46 46 46 45 46 46 43 43 43 42 42 41 40 38 37 37 38 37 37 36 37 40 43 42 40 37 39 41 41 33 33 32 36 35 35 34 33 33 33 34 34 33 33 34
45 46 45 45 44 44 44 43 42 40 41 40 38 36 36 37 37 37 35 38 40 42 43 43 37 36 38 38 35 33 32 31 33 34 32 32 33 33 32 33 33 33 33 33
44 44 43 43 43 41 42 42 41 40 39 39 38 38 36 35 36 36 40 38 40 43 41 39 39 42 40 39 33 32 32 32 35 34 32 33 32 32 32 33 33 33 33 33
42 43 43 42 41 40 40 40 40 40 38 37 37 37 35 34 34 31 31 38 40 42 39 40 42 43 42 33 32 32 31 32 31 31 32 33 33 33 33 33 34 34 33 33
41 42 41 41 40 39 37 38 39 39 38 38 38 38 36 31 33 35 39 41 42 41 40 40 41 43 39 31 31 30 30 31 31 32 33 35 34 34 34 34 34 34 34 33
42 40 39 38 37 35 36 37 37 37 37 36 37 37 38 39 35 36 39 39 41 40 38 42 41 40 32 31 31 30 30 31 32 33 32 33 33 33 34 34 34 35 34 34
41 39 37 38 37 36 36 36 33 34 34 33 33 35 39 39 39 38 39 39 39 39 37 35 33 32 31 31 31 31 30 31 33 32 33 33 34 34 34 34 34 34 34 34
39 41 38 36 37 37 36 36 34 33 34 33 33 35 37 39 38 38 38 37 36 37 36 32 31 34 32 31 30 31 30 30 34 33 33 33 34 35 35 34 34 34 34 35